Simultaneous Nadir Overpasses (SNOs) Predictions

Prediction of SNOs between METOP-A and NOAA-19 Satellite Orbit:

Table of predicted SNOs for the next 14.0 days since TLE Epoch: 9/21/2018
Index Date (METOP-A) Time (METOP-A) Lat,Lon (METOP-A) SZA (METOP-A ) Date (NOAA-19) Time (NOAA-19) Lat,Lon (NOAA-19) SZA (NOAA-19 ) Distance(km) Time Diff (sec)
1 09/27/2018 15:15:31 -79.15, 142.39 98.83 09/27/2018 15:14:24 -79.15, 139.05 98.97 70.04 67
2 09/27/2018 16:06:18 78.90, -51.96 80.87 09/27/2018 16:05:14 78.92, -51.86 80.89 3.01 64
3 09/27/2018 16:56:59 -78.91, 115.44 99.10 09/27/2018 16:56:18 -78.92, 115.37 99.11 1.66 41
4 09/27/2018 17:47:39 78.92, -77.20 80.92 09/27/2018 17:47:15 78.92, -77.35 80.91 3.31 24
5 09/27/2018 18:38:21 -78.89, 89.96 99.10 09/27/2018 18:38:19 -78.92, 89.88 99.08 3.46 2
6 09/27/2018 19:29:01 78.90,-102.67 80.92 09/27/2018 19:29:15 78.89,-102.59 80.92 2.31 14
7 09/27/2018 20:19:42 -78.91, 64.72 99.06 09/27/2018 20:20:19 -78.88, 64.65 99.08 3.06 37
8 09/27/2018 21:10:23 78.88,-128.15 80.92 09/27/2018 21:11:16 78.88,-128.08 80.94 1.75 53
9 09/27/2018 22:01:05 -78.85, 39.01 99.10 09/27/2018 22:02:19 -78.85, 39.41 99.07 8.73 74




NCC Satellite Simultaneous Nadir Overpasses (SNOs) Prediction Service
